This demonstration page uses our WeatherBlox Daily Observations layout. Learn more.

Left ArrowRight Arrow

Hourly Observations for December 16, 2020

Temp ( °F °C ) Dew Point ( °F °C ) Humidity (%) Winds ( mph kmh ) Pressure ( in mb ) Visibility ( mi km ) Precip ( " mm )
12:51 am 00:51 Clear 32 undefined 19 -7.2 59 59 N N/A 30.19 1022 10 16 N/A
1:51 am 01:51 Clear 30 -1.1 19 -7.2 64 64 SSE 3 6 30.18 1022 10 16 N/A
2:51 am 02:51 Clear 32 undefined 18 -7.8 56 56 S 6 9 30.17 1022 10 16 N/A
3:51 am 03:51 Clear 28 -2.2 19 -7.2 69 69 N N/A 30.18 1022 10 16 N/A
4:51 am 04:51 Clear 27 -2.8 19 -7.2 72 72 S 3 6 30.18 1022 10 16 N/A
5:51 am 05:51 Clear 28 -2.2 18 -7.8 66 66 N N/A 30.20 1023 10 16 N/A
6:51 am 06:51 undefined 24 -4.4 18 -7.8 77 77 N N/A 30.23 1024 10 16 N/A
7:51 am 07:51 Sunny 28 -2.2 20 -6.7 72 72 N N/A 30.24 1024 10 16 N/A
8:51 am 08:51 Sunny 34 1.1 21 -6.1 59 59 N N/A 30.24 1024 10 16 N/A
9:51 am 09:51 Sunny 38 3.3 20 -6.7 48 48 W 3 6 30.24 1024 10 16 N/A
10:51 am 10:51 Sunny 43 6.1 20 -6.7 40 40 N N/A 30.22 1023 10 16 N/A
11:51 am 11:51 Sunny 49 9.4 19 -7.2 31 31 N N/A 30.18 1022 10 16 N/A
12:51 pm 12:51 Sunny 50 10 18 -7.8 28 28 N N/A 30.14 1021 10 16 N/A
1:51 pm 13:51 Sunny 52 11.1 16 -8.9 24 24 N N/A 30.11 1020 10 16 N/A
2:51 pm 14:51 Sunny 55 12.8 16 -8.9 21 21 N N/A 30.08 1019 10 16 N/A
3:51 pm 15:51 Sunny 56 13.3 16 -8.9 21 21 N N/A 30.08 1019 10 16 N/A
4:51 pm 16:51 Sunny 54 12.2 17 -8.3 23 23 N N/A 30.09 1019 10 16 N/A
5:51 pm 17:51 Clear 50 10 17 -8.3 27 27 N N/A 30.10 1019 10 16 N/A
6:51 pm 18:51 Clear 42 5.6 22 -5.6 45 45 E 5 7 30.13 1020 10 16 N/A
7:51 pm 19:51 Clear 41 5 21 -6.1 45 45 E 5 7 30.14 1021 10 16 N/A
8:51 pm 20:51 Clear 39 3.9 20 -6.7 46 46 E 5 7 30.13 1020 10 16 N/A

Powered by AerisWeather